CST,Max TemperatureF,Mean TemperatureF,Min TemperatureF,Max Dew PointF,MeanDew PointF,Min DewpointF,Max Humidity, Mean Humidity, Min Humidity, Max Sea Level PressureIn, Mean Sea Level PressureIn, Min Sea Level PressureIn, Max VisibilityMiles, Mean VisibilityMiles, Min VisibilityMiles, Max Wind SpeedMPH, Mean Wind SpeedMPH, Max Gust SpeedMPH,PrecipitationIn, CloudCover, Events, WindDirDegrees
2013-1-1,85,79,73,75,74,72,95,79,62,30.03,29.96,29.89,15,9,6,8,4,,0.01,5,Rain,124
2013-1-2,85,80,75,77,74,71,94,76,57,30.00,29.93,29.89,12,8,6,10,5,,0.01,4,,89
2013-1-3,85,79,73,76,74,72,100,83,66,30.04,29.98,29.94,12,8,5,12,4,,0.35,4,Rain-Thunderstorm,85
2013-1-4,83,78,72,75,73,70,94,81,70,30.09,30.03,30.00,12,8,2,13,6,,0.31,5,Rain,81
2013-1-5,83,77,71,74,73,71,100,88,65,30.08,30.03,29.99,12,6,1,12,3,,0.71,5,Rain-Thunderstorm,109
2013-1-6,82,77,72,76,74,71,94,85,63,30.06,30.00,29.95,12,8,6,12,6,,0.63,6,Rain,72
2013-1-7,83,77,71,77,74,72,100,89,71,30.07,30.00,29.93,12,7,1,13,4,,0.00,6,Fog-Rain,32
2013-1-8,84,80,75,75,75,73,94,79,68,30.00,29.94,29.90,12,8,2,14,8,,0.04,3,Rain,83
2013-1-9,86,82,77,77,76,75,89,80,69,29.99,29.94,29.89,12,8,6,14,10,,0.00,3,,98
2013-1-10,86,80,75,77,75,73,94,80,67,30.03,29.98,29.92,12,8,6,14,11,,0.08,5,Rain,100
2013-1-11,84,80,77,76,75,73,89,79,65,30.04,29.98,29.94,12,8,6,13,10,,0.00,3,Rain,94
2013-1-12,85,80,75,75,74,72,94,80,68,30.00,29.95,29.91,12,8,6,12,5,,0.03,3,Rain,95
2013-1-13,85,79,73,75,72,70,89,71,52,29.96,29.91,29.86,16,8,6,10,7,,0.00,2,,112
2013-1-14,84,79,74,75,73,71,94,78,63,30.01,29.97,29.93,12,8,6,10,5,,0.00,3,,96
2013-1-15,84,80,75,75,74,72,94,82,66,29.99,29.94,29.90,12,8,6,14,5,,0.01,4,Rain,95
2013-1-16,84,80,75,75,73,72,89,78,70,29.99,29.94,29.90,6,6,6,12,6,,0.00,3,,91
2013-1-17,82,76,69,73,71,68,100,81,65,30.12,30.07,30.01,6,6,0,16,7,,0.01,5,Fog-Rain,327
2013-1-18,74,68,63,62,60,59,88,69,50,30.29,30.20,29.91,12,8,6,17,13,,0.01,6,Rain,312
2013-1-19,77,71,65,64,62,60,83,72,51,30.23,30.14,30.07,12,8,6,10,8,,0.00,6,,281
2013-1-20,78,72,66,68,64,62,88,71,52,30.16,30.08,30.00,12,8,6,12,6,,0.00,6,,333
2013-1-21,82,74,66,70,67,64,94,76,54,30.11,30.05,29.99,16,9,6,12,4,,0.00,3,,8
2013-1-22,81,74,68,72,69,68,94,82,60,30.14,30.08,30.02,12,8,6,12,5,,0.08,6,Rain,13
2013-1-23,72,70,69,72,70,68,100,94,87,30.19,30.14,30.07,12,5,1,10,4,,0.16,7,Rain,19
2013-1-24,77,72,68,70,69,68,94,87,75,30.20,30.15,30.12,12,8,6,13,7,,0.04,6,Rain,341
2013-1-25,75,72,68,73,69,67,100,90,74,30.17,30.11,30.06,12,8,3,12,6,,0.08,6,Rain,298
2013-1-26,80,74,69,73,71,69,100,89,74,30.13,30.07,30.01,12,8,6,10,5,,9.45,5,Rain-Thunderstorm,12
2013-1-27,80,74,69,74,73,70,100,90,74,30.12,30.06,30.02,12,7,1,10,4,,1.06,5,Rain-Thunderstorm,57
2013-1-28,83,76,69,75,73,70,100,86,68,30.11,30.06,30.01,12,6,0,29,6,,0.00,4,Fog-Rain,83
2013-1-29,85,80,75,75,74,73,94,78,66,30.04,29.98,29.92,12,8,6,12,6,,0.00,3,Rain,103
2013-1-30,85,80,74,76,74,72,94,78,57,29.95,29.89,29.85,16,9,6,10,7,,0.00,1,,120
2013-1-31,84,78,72,77,74,71,100,86,68,30.09,30.02,29.94,12,8,5,8,4,,0.16,2,Rain,358